Location: C.E.K. Mees Observatory
(42.7003°N, 77.4088°W)
Time: 02:07:07
(UTC-04:00)

Envisat - Pass Details

Date: 13 October 2017
Orbit: 764 x 766 km, 98.2° (Epoch: 23 October)

Event Time Altitude Azimuth Distance (km) Brightness Sun altitude
Exits shadow 19:16:46 11° 75° (ENE) 2,227 4.8 -9.4°
Maximum altitude 19:18:09 12° 58° (ENE) 2,150 4.8 -9.6°
Drops below altitude 10° 19:20:07 10° 35° (NE) 2,308 5.1 -10.0°
Sets 19:23:52 0° 7° (N) 3,240 6.2 -10.7°
